Terminal Aerodrome Forecast
Issued by NWS

Home | Current Version | Previous Version | Text Only | Print | Product List | Glossary On
Versions: 1 2 3 4 5 6 7 8 9 10 11 12 13 14 15 16 17
000
FTUS46 KSEW 220500
TAFOLM
TAF
KOLM 220537Z 2206/2306 19006KT P6SM SCT150
     FM220700 20006KT P6SM OVC012
     FM221800 20006KT P6SM OVC022
     FM222000 22006KT P6SM BKN035 BKN100
     FM222200 22006KT P6SM SCT040 BKN100=

USA.gov is the U.S. government's official web portal to all federal, state and local government web resources and services.